QPF
0.00 0.00 0.00 0.00 0.00 0.00 0.00 0.00 0.00 0.00 0.00 0.00 0.00 0.00 0.01 0.01 0.01 0.02 0.02 0.02 0.02 0.02 0.02 0.02 0.02 0.02 0.03 0.03 0.03 0.03 0.03 0.03 0.03 0.01 0.01 0.01 0.01 0.01 0.00 0.00 0.00 0.00 0.00
0.00 0.00 0.00 0.00 0.01 0.01 0.00 0.00 0.00 0.00 0.00 0.00 0.00 0.01 0.01 0.01 0.01 0.02 0.02 0.02 0.03 0.03 0.03 0.03 0.03 0.03 0.04 0.04 0.04 0.04 0.04 0.03 0.03 0.03 0.02 0.01 0.01 0.01 0.01 0.01 0.00 0.00 0.00
0.00 0.00 0.00 0.00 0.01 0.01 0.01 0.00 0.00 0.01 0.01 0.01 0.01 0.01 0.01 0.01 0.01 0.02 0.02 0.03 0.03 0.03 0.04 0.04 0.05 0.05 0.05 0.05 0.05 0.06 0.05 0.05 0.05 0.04 0.03 0.03 0.02 0.02 0.02 0.01 0.01 0.00 0.00
0.00 0.00 0.00 0.00 0.00 0.00 0.01 0.01 0.01 0.01 0.02 0.02 0.02 0.02 0.02 0.02 0.02 0.02 0.03 0.04 0.05 0.05 0.05 0.05 0.05 0.05 0.05 0.05 0.06 0.06 0.06 0.06 0.05 0.04 0.04 0.03 0.02 0.02 0.01 0.01 0.01 0.00 0.00
0.00 0.00 0.00 0.00 0.00 0.00 0.00 0.01 0.01 0.01 0.02 0.02 0.02 0.02 0.02 0.02 0.02 0.03 0.03 0.04 0.05 0.05 0.05 0.05 0.05 0.06 0.06 0.06 0.06 0.06 0.06 0.06 0.06 0.05 0.03 0.02 0.02 0.01 0.01 0.01 0.01 0.01 0.01
0.00 0.00 0.00 0.00 0.00 0.01 0.01 0.01 0.01 0.01 0.01 0.01 0.02 0.02 0.02 0.03 0.04 0.04 0.05 0.05 0.05 0.05 0.05 0.05 0.05 0.06 0.07 0.09 0.09 0.08 0.07 0.07 0.06 0.05 0.04 0.03 0.02 0.01 0.02 0.02 0.01 0.01 0.01
0.00 0.00 0.00 0.00 0.00 0.00 0.01 0.01 0.01 0.01 0.01 0.01 0.02 0.02 0.02 0.03 0.05 0.05 0.05 0.05 0.04 0.05 0.05 0.05 0.06 0.08 0.10 0.10 0.11 0.11 0.09 0.08 0.06 0.04 0.03 0.02 0.02 0.02 0.02 0.02 0.01 0.01 0.01
0.00 0.00 0.00 0.00 0.00 0.00 0.00 0.00 0.00 0.01 0.01 0.01 0.02 0.02 0.02 0.02 0.04 0.05 0.06 0.05 0.05 0.05 0.05 0.06 0.07 0.09 0.10 0.11 0.10 0.09 0.07 0.06 0.06 0.04 0.03 0.03 0.02 0.02 0.01 0.01 0.01 0.01 0.01
0.00 0.00 0.00 0.01 0.01 0.01 0.00 0.00 0.00 0.00 0.01 0.01 0.02 0.02 0.02 0.03 0.05 0.05 0.05 0.04 0.05 0.06 0.07 0.08 0.10 0.10 0.12 0.13 0.11 0.09 0.09 0.08 0.08 0.06 0.04 0.03 0.02 0.02 0.02 0.02 0.02 0.02 0.01
0.00 0.00 0.01 0.01 0.01 0.01 0.01 0.00 0.00 0.00 0.01 0.01 0.01 0.02 0.02 0.03 0.05 0.06 0.06 0.04 0.05 0.05 0.06 0.08 0.10 0.10 0.11 0.12 0.09 0.08 0.08 0.08 0.07 0.05 0.04 0.03 0.02 0.02 0.02 0.02 0.01 0.01 0.01
0.00 0.00 0.01 0.01 0.01 0.01 0.01 0.00 0.00 0.00 0.00 0.01 0.01 0.01 0.02 0.03 0.04 0.05 0.05 0.04 0.04 0.04 0.05 0.05 0.06 0.08 0.08 0.08 0.07 0.06 0.07 0.07 0.06 0.05 0.04 0.03 0.02 0.02 0.02 0.01 0.01 0.01 0.01
0.00 0.00 0.00 0.01 0.01 0.01 0.01 0.01 0.00 0.00 0.00 0.00 0.00 0.00 0.01 0.01 0.02 0.03 0.03 0.03 0.03 0.03 0.03 0.03 0.05 0.08 0.08 0.07 0.06 0.05 0.06 0.05 0.05 0.04 0.04 0.03 0.02 0.02 0.02 0.01 0.01 0.01 0.01
0.00 0.00 0.00 0.00 0.00 0.01 0.01 0.01 0.01 0.01 0.01 0.00 0.00 0.00 0.01 0.01 0.01 0.02 0.02 0.02 0.02 0.02 0.02 0.04 0.05 0.07 0.07 0.06 0.06 0.05 0.05 0.05 0.04 0.04 0.03 0.03 0.02 0.02 0.02 0.02 0.01 0.01 0.01
0.00 0.00 0.00 0.00 0.00 0.00 0.00 0.00 0.00 0.01 0.01 0.01 0.01 0.01 0.01 0.01 0.01 0.01 0.01 0.01 0.01 0.02 0.02 0.04 0.05 0.05 0.05 0.04 0.04 0.04 0.04 0.03 0.03 0.03 0.02 0.02 0.02 0.02 0.02 0.02 0.02 0.02 0.02
0.00 0.00 0.00 0.00 0.00 0.00 0.00 0.00 0.00 0.00 0.00 0.00 0.00 0.00 0.00 0.01 0.01 0.01 0.01 0.01 0.01 0.01 0.02 0.03 0.03 0.04 0.03 0.03 0.03 0.03 0.03 0.04 0.04 0.03 0.03 0.03 0.03 0.03 0.02 0.02 0.02 0.02 0.02
0.00 0.00 0.00 0.00 0.00 0.00 0.00 0.00 0.00 0.00 0.00 0.00 0.00 0.00 0.00 0.00 0.01 0.01 0.01 0.01 0.02 0.02 0.03 0.02 0.02 0.02 0.02 0.03 0.03 0.04 0.04 0.04 0.04 0.04 0.04 0.04 0.03 0.03 0.03 0.03 0.02 0.02 0.01
0.00 0.00 0.00 0.00 0.00 0.00 0.00 0.00 0.00 0.00 0.00 0.00 0.00 0.00 0.00 0.00 0.01 0.01 0.01 0.01 0.02 0.03 0.03 0.02 0.02 0.03 0.03 0.03 0.03 0.03 0.03 0.03 0.04 0.05 0.05 0.04 0.04 0.04 0.03 0.03 0.02 0.02 0.01
0.00 0.00 0.00 0.00 0.00 0.00 0.00 0.00 0.00 0.00 0.00 0.00 0.00 0.00 0.00 0.00 0.00 0.01 0.01 0.02 0.03 0.03 0.02 0.02 0.02 0.02 0.02 0.03 0.02 0.03 0.03 0.04 0.05 0.05 0.05 0.04 0.04 0.04 0.03 0.02 0.02 0.02 0.01
0.00 0.00 0.00 0.00 0.00 0.00 0.00 0.00 0.00 0.00 0.00 0.00 0.00 0.00 0.00 0.00 0.00 0.01 0.01 0.01 0.01 0.02 0.02 0.02 0.02 0.02 0.02 0.02 0.03 0.03 0.04 0.04 0.04 0.04 0.04 0.04 0.04 0.04 0.03 0.02 0.02 0.02 0.02
0.00 0.00 0.00 0.00 0.00 0.00 0.00 0.00 0.00 0.00 0.00 0.00 0.00 0.00 0.00 0.00 0.00 0.00 0.01 0.01 0.01 0.01 0.01 0.02 0.02 0.03 0.03 0.03 0.03 0.04 0.04 0.04 0.04 0.04 0.04 0.04 0.04 0.04 0.03 0.03 0.03 0.02 0.02
0.00 0.00 0.00 0.00 0.00 0.00 0.00 0.00 0.00 0.00 0.00 0.00 0.00 0.00 0.00 0.00 0.00 0.00 0.01 0.01 0.01 0.01 0.02 0.02 0.02 0.02 0.03 0.03 0.04 0.04 0.04 0.04 0.04 0.04 0.04 0.04 0.04 0.04 0.03 0.03 0.03 0.02 0.02
0.00 0.00 0.00 0.00 0.00 0.00 0.00 0.00 0.00 0.00 0.00 0.00 0.00 0.00 0.00 0.00 0.00 0.01 0.01 0.01 0.01 0.02 0.02 0.02 0.02 0.02 0.02 0.03 0.03 0.04 0.04 0.04 0.04 0.04 0.04 0.04 0.04 0.04 0.03 0.03 0.03 0.03 0.02
0.00 0.00 0.00 0.00 0.00 0.00 0.00 0.00 0.00 0.00 0.00 0.00 0.00 0.00 0.00 0.00 0.00 0.01 0.01 0.01 0.01 0.02 0.02 0.02 0.02 0.02 0.02 0.03 0.04 0.04 0.05 0.04 0.04 0.04 0.05 0.05 0.04 0.03 0.03 0.03 0.03 0.03 0.02
0.00 0.00 0.00 0.00 0.00 0.00 0.00 0.00 0.00 0.00 0.00 0.00 0.00 0.00 0.00 0.00 0.00 0.00 0.01 0.01 0.01 0.01 0.01 0.01 0.02 0.02 0.02 0.03 0.03 0.04 0.04 0.04 0.04 0.05 0.05 0.04 0.04 0.03 0.03 0.03 0.02 0.02 0.02
0.00 0.00 0.00 0.00 0.00 0.00 0.00 0.00 0.00 0.00 0.00 0.00 0.00 0.00 0.00 0.00 0.00 0.00 0.00 0.00 0.00 0.01 0.01 0.01 0.01 0.01 0.01 0.02 0.02 0.02 0.03 0.03 0.04 0.04 0.04 0.04 0.04 0.03 0.03 0.02 0.02 0.02 0.03
0.00 0.00 0.00 0.00 0.00 0.00 0.00 0.00 0.00 0.00 0.00 0.00 0.00 0.00 0.00 0.00 0.00 0.00 0.00 0.00 0.00 0.00 0.00 0.00 0.00 0.01 0.01 0.01 0.01 0.01 0.02 0.02 0.03 0.03 0.03 0.03 0.03 0.03 0.03 0.03 0.03 0.03 0.03
MSLP
1010.18 1010.77 1011.38 1011.99 1012.57 1013.11 1013.61 1014.08 1014.53 1014.97 1015.41 1015.86 1016.30 1016.74 1017.16 1017.55 1017.89 1018.18 1018.41 1018.60 1018.74 1018.85 1018.95 1019.06 1019.21 1019.41 1019.71 1020.11 1020.65 1021.33 1022.14 1023.06 1024.06 1025.09 1026.10 1027.03 1027.86 1028.54 1029.08 1029.47 1029.75 1029.95 1030.10
1009.52 1010.03 1010.56 1011.11 1011.65 1012.16 1012.65 1013.11 1013.54 1013.97 1014.39 1014.80 1015.20 1015.58 1015.95 1016.29 1016.60 1016.88 1017.12 1017.33 1017.50 1017.65 1017.77 1017.90 1018.05 1018.25 1018.52 1018.89 1019.40 1020.05 1020.85 1021.78 1022.81 1023.89 1024.98 1026.01 1026.94 1027.74 1028.38 1028.87 1029.23 1029.49 1029.69
1009.06 1009.49 1009.96 1010.43 1010.91 1011.37 1011.80 1012.22 1012.62 1013.00 1013.36 1013.71 1014.04 1014.36 1014.67 1014.97 1015.25 1015.52 1015.77 1016.01 1016.23 1016.43 1016.62 1016.80 1016.99 1017.21 1017.49 1017.86 1018.34 1018.97 1019.74 1020.65 1021.67 1022.77 1023.89 1024.96 1025.96 1026.83 1027.56 1028.14 1028.58 1028.92 1029.18
1008.78 1009.14 1009.54 1009.94 1010.34 1010.73 1011.10 1011.46 1011.80 1012.11 1012.41 1012.69 1012.95 1013.21 1013.46 1013.70 1013.96 1014.22 1014.49 1014.76 1015.04 1015.31 1015.58 1015.83 1016.09 1016.35 1016.66 1017.04 1017.51 1018.10 1018.83 1019.69 1020.67 1021.72 1022.82 1023.90 1024.92 1025.84 1026.62 1027.28 1027.80 1028.22 1028.55
1008.59 1008.92 1009.25 1009.59 1009.92 1010.25 1010.56 1010.85 1011.12 1011.38 1011.62 1011.84 1012.05 1012.25 1012.45 1012.66 1012.89 1013.14 1013.43 1013.74 1014.07 1014.40 1014.74 1015.07 1015.39 1015.71 1016.05 1016.44 1016.89 1017.45 1018.12 1018.90 1019.80 1020.78 1021.82 1022.85 1023.86 1024.78 1025.61 1026.33 1026.93 1027.43 1027.85
1008.44 1008.75 1009.05 1009.35 1009.63 1009.91 1010.17 1010.42 1010.65 1010.87 1011.07 1011.26 1011.43 1011.60 1011.77 1011.96 1012.17 1012.42 1012.70 1013.03 1013.39 1013.77 1014.16 1014.54 1014.91 1015.27 1015.64 1016.04 1016.47 1016.98 1017.59 1018.28 1019.08 1019.97 1020.91 1021.87 1022.83 1023.75 1024.59 1025.36 1026.03 1026.62 1027.13
1008.25 1008.57 1008.87 1009.16 1009.42 1009.68 1009.92 1010.15 1010.37 1010.59 1010.79 1010.97 1011.15 1011.31 1011.47 1011.65 1011.85 1012.08 1012.36 1012.68 1013.04 1013.43 1013.83 1014.24 1014.63 1015.02 1015.40 1015.79 1016.21 1016.68 1017.21 1017.82 1018.52 1019.29 1020.13 1021.02 1021.91 1022.80 1023.65 1024.45 1025.19 1025.86 1026.46
1007.99 1008.35 1008.68 1008.98 1009.26 1009.53 1009.78 1010.03 1010.28 1010.52 1010.75 1010.96 1011.16 1011.34 1011.52 1011.70 1011.89 1012.10 1012.35 1012.64 1012.97 1013.33 1013.71 1014.10 1014.50 1014.89 1015.27 1015.66 1016.06 1016.49 1016.97 1017.51 1018.11 1018.79 1019.54 1020.34 1021.17 1022.02 1022.86 1023.68 1024.47 1025.20 1025.87
1007.66 1008.07 1008.45 1008.79 1009.11 1009.41 1009.70 1010.00 1010.29 1010.58 1010.86 1011.13 1011.37 1011.59 1011.79 1011.97 1012.15 1012.33 1012.54 1012.78 1013.05 1013.36 1013.69 1014.05 1014.42 1014.80 1015.18 1015.56 1015.95 1016.37 1016.82 1017.31 1017.86 1018.47 1019.14 1019.87 1020.65 1021.45 1022.28 1023.10 1023.91 1024.68 1025.41
1007.28 1007.75 1008.18 1008.58 1008.95 1009.30 1009.64 1009.99 1010.34 1010.68 1011.02 1011.34 1011.63 1011.89 1012.11 1012.30 1012.46 1012.62 1012.78 1012.96 1013.16 1013.41 1013.68 1014.00 1014.33 1014.69 1015.07 1015.46 1015.86 1016.28 1016.73 1017.21 1017.73 1018.30 1018.93 1019.60 1020.33 1021.09 1021.89 1022.70 1023.51 1024.30 1025.04
1006.92 1007.44 1007.91 1008.36 1008.77 1009.17 1009.57 1009.96 1010.36 1010.75 1011.13 1011.49 1011.81 1012.10 1012.33 1012.53 1012.68 1012.80 1012.92 1013.05 1013.19 1013.38 1013.60 1013.87 1014.18 1014.53 1014.92 1015.33 1015.76 1016.21 1016.68 1017.17 1017.69 1018.25 1018.84 1019.48 1020.17 1020.89 1021.65 1022.43 1023.21 1023.99 1024.72
1006.63 1007.17 1007.68 1008.16 1008.61 1009.04 1009.47 1009.89 1010.31 1010.73 1011.13 1011.50 1011.84 1012.13 1012.37 1012.56 1012.70 1012.80 1012.89 1012.98 1013.09 1013.23 1013.42 1013.66 1013.96 1014.31 1014.71 1015.14 1015.61 1016.10 1016.61 1017.13 1017.67 1018.23 1018.81 1019.43 1020.07 1020.75 1021.46 1022.19 1022.94 1023.67 1024.37
1006.45 1007.00 1007.52 1008.01 1008.48 1008.93 1009.37 1009.80 1010.22 1010.63 1011.02 1011.38 1011.70 1011.98 1012.21 1012.39 1012.52 1012.61 1012.68 1012.76 1012.85 1012.97 1013.15 1013.38 1013.68 1014.04 1014.46 1014.92 1015.43 1015.95 1016.50 1017.05 1017.61 1018.17 1018.74 1019.33 1019.94 1020.57 1021.22 1021.89 1022.58 1023.26 1023.92
1006.43 1006.95 1007.46 1007.95 1008.43 1008.88 1009.32 1009.74 1010.13 1010.51 1010.86 1011.19 1011.47 1011.71 1011.92 1012.07 1012.19 1012.28 1012.36 1012.44 1012.53 1012.66 1012.84 1013.08 1013.39 1013.76 1014.18 1014.67 1015.19 1015.73 1016.29 1016.86 1017.42 1017.98 1018.53 1019.09 1019.65 1020.23 1020.82 1021.44 1022.06 1022.68 1023.30
1006.55 1007.03 1007.52 1008.01 1008.49 1008.94 1009.37 1009.76 1010.12 1010.46 1010.75 1011.02 1011.24 1011.44 1011.60 1011.73 1011.84 1011.94 1012.03 1012.12 1012.23 1012.38 1012.57 1012.82 1013.12 1013.48 1013.90 1014.37 1014.88 1015.42 1015.97 1016.52 1017.06 1017.60 1018.12 1018.64 1019.15 1019.67 1020.21 1020.76 1021.32 1021.89 1022.47
1006.80 1007.24 1007.72 1008.20 1008.68 1009.14 1009.56 1009.94 1010.27 1010.55 1010.78 1010.98 1011.14 1011.28 1011.39 1011.50 1011.59 1011.69 1011.78 1011.90 1012.03 1012.19 1012.38 1012.62 1012.90 1013.24 1013.62 1014.05 1014.51 1015.00 1015.50 1016.00 1016.50 1016.99 1017.47 1017.94 1018.40 1018.87 1019.35 1019.84 1020.36 1020.89 1021.43
1007.15 1007.56 1008.03 1008.52 1009.02 1009.49 1009.92 1010.29 1010.59 1010.83 1011.01 1011.14 1011.24 1011.31 1011.38 1011.44 1011.52 1011.60 1011.70 1011.82 1011.96 1012.11 1012.30 1012.51 1012.75 1013.03 1013.34 1013.69 1014.07 1014.47 1014.89 1015.33 1015.76 1016.19 1016.61 1017.03 1017.44 1017.86 1018.30 1018.75 1019.22 1019.72 1020.24
1007.58 1007.97 1008.44 1008.95 1009.48 1009.98 1010.42 1010.79 1011.08 1011.29 1011.42 1011.50 1011.54 1011.55 1011.57 1011.60 1011.64 1011.71 1011.80 1011.90 1012.03 1012.16 1012.31 1012.47 1012.65 1012.84 1013.06 1013.30 1013.58 1013.88 1014.21 1014.55 1014.90 1015.26 1015.63 1016.00 1016.37 1016.75 1017.14 1017.56 1018.00 1018.47 1018.97
1008.07 1008.46 1008.94 1009.48 1010.03 1010.56 1011.03 1011.41 1011.69 1011.87 1011.97 1012.00 1011.99 1011.96 1011.93 1011.92 1011.93 1011.97 1012.03 1012.12 1012.21 1012.31 1012.40 1012.49 1012.59 1012.68 1012.80 1012.93 1013.09 1013.28 1013.50 1013.75 1014.03 1014.33 1014.64 1014.96 1015.29 1015.64 1016.00 1016.38 1016.80 1017.24 1017.72
1008.64 1009.02 1009.51 1010.07 1010.64 1011.19 1011.67 1012.05 1012.32 1012.49 1012.56 1012.56 1012.51 1012.44 1012.37 1012.33 1012.31 1012.33 1012.36 1012.42 1012.47 1012.52 1012.56 1012.57 1012.58 1012.58 1012.59 1012.61 1012.66 1012.75 1012.88 1013.05 1013.26 1013.49 1013.76 1014.04 1014.34 1014.65 1014.98 1015.33 1015.70 1016.12 1016.57
1009.30 1009.68 1010.16 1010.71 1011.28 1011.81 1012.28 1012.65 1012.91 1013.05 1013.10 1013.08 1013.01 1012.91 1012.83 1012.76 1012.73 1012.72 1012.74 1012.76 1012.78 1012.78 1012.76 1012.71 1012.65 1012.56 1012.48 1012.41 1012.37 1012.38 1012.43 1012.53 1012.68 1012.86 1013.08 1013.33 1013.59 1013.86 1014.15 1014.46 1014.79 1015.16 1015.56
1010.07 1010.42 1010.87 1011.38 1011.90 1012.39 1012.82 1013.15 1013.37 1013.49 1013.52 1013.49 1013.41 1013.31 1013.23 1013.16 1013.13 1013.12 1013.12 1013.13 1013.13 1013.10 1013.03 1012.94 1012.81 1012.66 1012.52 1012.38 1012.28 1012.22 1012.21 1012.26 1012.36 1012.50 1012.67 1012.88 1013.09 1013.33 1013.56 1013.82 1014.09 1014.39 1014.73
1010.95 1011.24 1011.62 1012.05 1012.49 1012.90 1013.25 1013.52 1013.70 1013.79 1013.80 1013.76 1013.69 1013.62 1013.55 1013.51 1013.50 1013.50 1013.52 1013.53 1013.52 1013.47 1013.38 1013.26 1013.10 1012.92 1012.72 1012.55 1012.40 1012.30 1012.24 1012.24 1012.30 1012.39 1012.52 1012.68 1012.84 1013.01 1013.19 1013.38 1013.58 1013.80 1014.06
1011.89 1012.11 1012.39 1012.71 1013.04 1013.34 1013.59 1013.78 1013.90 1013.96 1013.97 1013.94 1013.89 1013.85 1013.83 1013.83 1013.86 1013.89 1013.93 1013.96 1013.95 1013.91 1013.82 1013.68 1013.50 1013.30 1013.09 1012.88 1012.70 1012.56 1012.47 1012.43 1012.43 1012.48 1012.56 1012.65 1012.75 1012.86 1012.97 1013.08 1013.20 1013.34 1013.53
1012.84 1012.96 1013.13 1013.33 1013.53 1013.71 1013.86 1013.97 1014.04 1014.07 1014.08 1014.07 1014.07 1014.08 1014.11 1014.16 1014.23 1014.31 1014.37 1014.42 1014.43 1014.39 1014.30 1014.16 1013.97 1013.75 1013.53 1013.30 1013.09 1012.92 1012.79 1012.70 1012.65 1012.64 1012.66 1012.69 1012.72 1012.76 1012.80 1012.84 1012.89 1012.96 1013.07
1013.70 1013.73 1013.79 1013.86 1013.94 1014.02 1014.08 1014.12 1014.15 1014.17 1014.19 1014.22 1014.26 1014.32 1014.40 1014.50 1014.61 1014.72 1014.81 1014.87 1014.89 1014.85 1014.75 1014.61 1014.41 1014.19 1013.94 1013.69 1013.46 1013.25 1013.08 1012.94 1012.83 1012.76 1012.71 1012.67 1012.65 1012.62 1012.60 1012.59 1012.59 1012.60 1012.66
Thickness
5676 5674 5672 5670 5667 5664 5660 5658 5655 5651 5647 5643 5640 5636 5633 5629 5625 5620 5617 5612 5608 5604 5599 5594 5590 5585 5579 5573 5566 5560 5553 5546 5535 5521 5511 5502 5493 5484 5476 5468 5461 5454 5448
5670 5667 5666 5664 5661 5659 5657 5655 5651 5647 5644 5640 5636 5632 5628 5625 5621 5616 5613 5608 5604 5600 5595 5589 5585 5578 5572 5567 5560 5554 5547 5540 5528 5513 5500 5491 5484 5477 5468 5459 5452 5445 5438
5659 5658 5657 5656 5654 5653 5652 5650 5646 5642 5639 5635 5631 5628 5625 5621 5616 5612 5608 5604 5599 5596 5591 5585 5580 5573 5566 5560 5553 5547 5539 5530 5521 5508 5495 5484 5474 5467 5457 5449 5442 5436 5429
5647 5647 5647 5647 5646 5646 5644 5641 5638 5635 5632 5629 5626 5623 5620 5616 5611 5607 5602 5598 5594 5590 5585 5580 5575 5568 5562 5554 5546 5539 5530 5520 5510 5499 5487 5476 5466 5458 5448 5439 5432 5426 5419
5636 5636 5637 5636 5634 5633 5632 5631 5629 5626 5624 5621 5617 5614 5611 5608 5604 5599 5594 5590 5586 5581 5576 5572 5567 5562 5556 5548 5541 5532 5522 5511 5500 5490 5479 5468 5458 5449 5442 5434 5425 5416 5409
5625 5625 5624 5622 5620 5619 5618 5616 5615 5613 5611 5609 5607 5604 5601 5599 5596 5591 5586 5580 5576 5571 5566 5561 5556 5550 5544 5538 5532 5525 5518 5507 5497 5486 5475 5466 5457 5447 5436 5426 5417 5406 5398
5613 5611 5610 5608 5606 5605 5603 5601 5600 5599 5597 5595 5593 5591 5590 5588 5583 5579 5574 5570 5566 5561 5556 5550 5544 5538 5531 5525 5518 5510 5504 5497 5491 5483 5473 5464 5452 5443 5430 5418 5410 5402 5393
5600 5599 5597 5595 5594 5591 5589 5588 5586 5584 5583 5582 5580 5579 5576 5574 5570 5566 5561 5556 5553 5548 5544 5538 5532 5526 5519 5511 5504 5496 5490 5483 5478 5470 5463 5455 5446 5436 5425 5416 5404 5390 5380
5588 5586 5584 5582 5580 5578 5576 5574 5572 5570 5569 5567 5566 5564 5561 5559 5556 5552 5547 5542 5538 5533 5529 5524 5519 5512 5506 5498 5490 5483 5474 5468 5462 5454 5448 5440 5432 5423 5413 5402 5389 5378 5367
5576 5574 5572 5570 5568 5566 5564 5561 5558 5556 5555 5552 5550 5548 5546 5544 5541 5538 5533 5529 5523 5518 5513 5508 5504 5499 5493 5486 5479 5472 5464 5456 5447 5439 5431 5424 5416 5408 5401 5393 5383 5371 5360
5563 5560 5558 5556 5554 5553 5550 5547 5544 5541 5539 5536 5534 5532 5530 5528 5525 5522 5519 5514 5510 5505 5499 5494 5489 5485 5479 5473 5466 5460 5454 5444 5434 5426 5417 5408 5401 5394 5387 5379 5372 5363 5353
5547 5545 5544 5542 5540 5538 5536 5532 5529 5527 5525 5522 5519 5516 5513 5511 5509 5507 5504 5500 5496 5491 5486 5480 5475 5470 5465 5459 5452 5445 5438 5430 5420 5411 5402 5395 5388 5380 5373 5365 5358 5350 5343
5532 5530 5529 5527 5526 5524 5522 5519 5515 5513 5511 5507 5505 5502 5498 5495 5493 5492 5489 5486 5481 5476 5471 5466 5460 5455 5450 5444 5437 5430 5422 5415 5407 5399 5392 5385 5377 5369 5359 5351 5343 5335 5326
5517 5516 5514 5512 5510 5508 5506 5505 5502 5499 5496 5493 5490 5488 5484 5480 5478 5476 5473 5469 5465 5461 5455 5450 5445 5440 5434 5428 5421 5414 5408 5401 5395 5388 5381 5372 5362 5354 5346 5338 5329 5320 5311
5502 5500 5498 5496 5495 5492 5490 5488 5486 5484 5483 5479 5476 5473 5470 5467 5465 5463 5459 5454 5450 5446 5440 5434 5429 5424 5418 5412 5405 5399 5392 5386 5379 5373 5365 5357 5349 5341 5333 5325 5316 5307 5299
5487 5485 5483 5481 5478 5476 5474 5471 5470 5469 5468 5466 5463 5460 5456 5454 5451 5449 5445 5441 5437 5432 5426 5420 5415 5410 5405 5399 5393 5386 5379 5373 5367 5360 5353 5345 5338 5330 5321 5312 5303 5296 5288
5471 5468 5466 5464 5462 5460 5458 5456 5453 5450 5450 5448 5447 5445 5443 5440 5437 5434 5431 5427 5422 5417 5411 5406 5401 5396 5390 5385 5379 5373 5367 5360 5354 5346 5340 5333 5325 5317 5309 5300 5291 5283 5276
5452 5450 5448 5446 5445 5443 5441 5438 5436 5434 5431 5428 5428 5428 5426 5424 5422 5419 5415 5410 5405 5401 5396 5390 5385 5380 5376 5371 5365 5359 5353 5346 5339 5333 5326 5318 5311 5303 5296 5288 5280 5271 5264
5433 5431 5429 5428 5426 5424 5422 5420 5417 5415 5413 5410 5409 5408 5407 5406 5405 5402 5398 5393 5390 5385 5380 5375 5370 5365 5361 5355 5350 5345 5339 5332 5326 5318 5312 5305 5297 5290 5283 5276 5267 5259 5250
5412 5411 5410 5409 5407 5405 5403 5401 5398 5396 5394 5392 5390 5388 5388 5386 5384 5382 5379 5375 5371 5368 5364 5360 5355 5350 5345 5340 5335 5329 5323 5317 5311 5304 5298 5291 5283 5277 5270 5262 5254 5245 5237
5391 5390 5390 5388 5387 5385 5383 5381 5379 5377 5374 5372 5370 5370 5371 5367 5364 5361 5359 5356 5353 5349 5346 5342 5338 5334 5329 5324 5318 5313 5307 5302 5296 5290 5283 5276 5268 5262 5255 5248 5240 5231 5223
5369 5369 5368 5367 5366 5364 5362 5360 5358 5356 5354 5352 5349 5348 5349 5346 5343 5340 5338 5335 5332 5329 5326 5323 5319 5315 5310 5306 5301 5296 5291 5285 5279 5272 5266 5260 5252 5246 5238 5231 5223 5215 5207
5347 5346 5345 5344 5343 5342 5340 5337 5335 5333 5332 5330 5328 5326 5325 5323 5320 5318 5315 5312 5310 5307 5304 5301 5298 5294 5290 5285 5281 5276 5271 5267 5261 5255 5248 5242 5235 5228 5221 5214 5206 5198 5190
5323 5323 5322 5320 5319 5318 5316 5314 5312 5310 5309 5308 5306 5304 5302 5299 5297 5295 5293 5290 5288 5285 5282 5279 5275 5272 5268 5264 5259 5255 5250 5245 5240 5234 5228 5222 5216 5209 5202 5195 5188 5181 5173
5300 5299 5298 5296 5295 5294 5292 5290 5288 5287 5286 5285 5283 5281 5279 5276 5274 5272 5270 5268 5266 5263 5259 5256 5253 5250 5246 5242 5238 5233 5228 5223 5218 5213 5208 5202 5196 5189 5182 5176 5169 5162 5155
5276 5275 5274 5272 5270 5269 5268 5267 5265 5264 5262 5261 5260 5258 5256 5254 5252 5249 5247 5245 5243 5240 5237 5234 5231 5227 5223 5220 5215 5211 5207 5203 5198 5192 5187 5181 5175 5169 5162 5156 5150 5144 5137